Regional Weather Roundup
Issued by NWS

Home | Current Version | Previous Version | Graphics & Text | Print | Product List | Glossary Off
Versions: 1 2 3 4 5 6 7 8 9 10 11 12 13 14 15 16 17 18 19 20 21 22 23 24 25 26 27 28 29 30 31 32 33 34 35 36 37 38 39 40 41 42 43 44 45 46 47 48 49 50

000
ASUS43 KFSD 220310
RWRSD

WEATHER ROUNDUP FOR SOUTH DAKOTA
NATIONAL WEATHER SERVICE SIOUX FALLS SD
1000 PM CDT THU AUG 21 2014

NOTE: "FAIR" INDICATES FEW OR NO CLOUDS BELOW 12,000 FEET WITH NO
SIGNIFICANT WEATHER AND/OR OBSTRUCTIONS TO VISIBILITY.


SDZ001>005-009-010-012>017-220400-
NORTHWEST AND NORTH CENTRAL SOUTH DAKOTA

CITY           SKY/WX    TMP DP  RH WIND       PRES   REMARKS
BUFFALO          N/A     64  58  80 NW23G32   29.93R
FAITH            N/A     70  62  76 NE8       29.95R
MOBRIDGE       CLEAR     69  64  84 NE9       29.92R
$$

SDZ012>016-024>037-041>051-057-063-072>074-220400-
SOUTHWEST AND SOUTH CENTRAL SOUTH DAKOTA

CITY           SKY/WX    TMP DP  RH WIND       PRES   REMARKS
RAPID CTY ARPT PTCLDY    65  57  75 N7        29.97R
PIERRE         PTCLDY    67  61  81 NE9       29.89R
CUSTER         LGT RAIN  62  55  77 E6        30.11R
ELLSWORTH AFB  PTCLDY    66  61  84 NW5       29.97R
PHILIP         PTCLDY    70  54  56 E6        29.91R
PINE RIDGE     CLEAR     70  58  65 E7        29.96R
WINNER         FAIR      74  61  63 E3        29.93R
$$

SDZ004>011-016>023-039-040-220400-
NORTHEAST SOUTH DAKOTA

CITY           SKY/WX    TMP DP  RH WIND       PRES   REMARKS
ABERDEEN       CLEAR     70  66  87 N6        29.89S
WATERTOWN      CLEAR     73  68  84 CALM      29.90R
SISSETON         N/A     71  70  96 NW5       29.86R
$$

SDZ017-020-022-023-036>040-048>070-220400-
SOUTHEAST SOUTH DAKOTA

CITY           SKY/WX    TMP DP  RH WIND       PRES   REMARKS
SIOUX FALLS    PTCLDY    74  69  85 N5        29.89R
HURON          PTCLDY    72  66  81 N6        29.89R
CHAMBERLAIN    PTCLDY    74  64  71 NE6       29.91R
MITCHELL       PTCLDY    73  66  78 N6        29.89R
YANKTON        CLEAR     75  70  83 N3        29.88R
$$

ABBREVIATIONS USED IN REMARKS
   TC - TEMPERATURE IN CELSIUS
  WCI - WIND CHILL INDEX
   HX - HEAT INDEX
  VSB - VISIBILITY



USA.gov is the U.S. government's official web portal to all federal, state and local government web resources and services.